{"data":{"norad_id":54187,"epoch":"2026-05-25T02:05:42.451296Z","epoch_age_seconds":67647,"freshness":"FRESH","line1":"1 54187U 22141AG  26145.08729689 -.00036110  00000+0 -22697-2 0  9992","line2":"2 54187  53.2149  20.9824 0000739 166.4661 193.6351 15.08720699197399","mean_motion":15.08720699,"eccentricity":7.39e-5,"inclination_deg":53.2149,"raan_deg":20.9824,"arg_perigee_deg":166.4661,"mean_anomaly_deg":193.6351,"bstar":-0.0022697,"rev_number":19739,"period_min":95.445101333497,"perigee_km":539.59681011229,"apogee_km":540.61932673341,"semimajor_km":6918.2450684228,"source":"CELESTRAK","updated_at":"2026-05-25T13:38:17.682138Z"}}